TimeCST,TemperatureF,Dew PointF,Humidity,Sea Level PressureIn,VisibilityMPH,Wind Direction,Wind SpeedMPH,Gust SpeedMPH,PrecipitationIn,Events,Conditions,WindDirDegrees,DateUTC
12:53 AM,33.1,23.0,66,30.40,10.0,North,10.4,-,N/A,,Clear,360,2012-02-11 06:53:00
1:53 AM,33.1,21.9,64,30.42,10.0,NNW,5.8,-,N/A,,Clear,340,2012-02-11 07:53:00
2:53 AM,32.0,21.9,66,30.43,10.0,North,9.2,-,N/A,,Clear,350,2012-02-11 08:53:00
3:53 AM,30.9,23.0,72,30.42,10.0,North,11.5,-,N/A,,Clear,350,2012-02-11 09:53:00
4:53 AM,30.9,19.0,61,30.45,10.0,North,13.8,-,N/A,,Clear,10,2012-02-11 10:53:00
5:53 AM,30.0,17.1,59,30.46,10.0,North,18.4,25.3,N/A,,Clear,10,2012-02-11 11:53:00
6:53 AM,30.0,16.0,56,30.50,10.0,North,18.4,-,N/A,,Mostly Cloudy,360,2012-02-11 12:53:00
7:53 AM,28.9,15.1,56,30.53,10.0,North,19.6,28.8,N/A,,Mostly Cloudy,10,2012-02-11 13:53:00
8:53 AM,30.0,15.1,54,30.56,10.0,North,21.9,28.8,N/A,,Mostly Cloudy,10,2012-02-11 14:53:00
9:53 AM,32.0,15.1,50,30.59,10.0,NNE,20.7,28.8,N/A,,Scattered Clouds,20,2012-02-11 15:53:00
10:53 AM,33.1,15.1,48,30.58,10.0,NNE,23.0,29.9,N/A,,Partly Cloudy,20,2012-02-11 16:53:00
11:53 AM,35.1,14.0,42,30.58,10.0,NNE,23.0,27.6,N/A,,Partly Cloudy,30,2012-02-11 17:53:00
12:53 PM,35.1,12.0,39,30.56,10.0,North,23.0,29.9,N/A,,Partly Cloudy,10,2012-02-11 18:53:00
1:53 PM,36.0,12.9,39,30.57,10.0,North,16.1,24.2,N/A,,Partly Cloudy,10,2012-02-11 19:53:00
2:53 PM,37.0,15.1,41,30.55,10.0,NNE,13.8,-,N/A,,Partly Cloudy,20,2012-02-11 20:53:00
3:53 PM,36.0,12.9,39,30.56,10.0,NNE,16.1,-,N/A,,Partly Cloudy,20,2012-02-11 21:53:00
4:53 PM,34.0,12.9,42,30.55,10.0,North,18.4,-,N/A,,Scattered Clouds,360,2012-02-11 22:53:00
5:53 PM,30.9,12.9,47,30.58,10.0,North,17.3,20.7,N/A,,Mostly Cloudy,10,2012-02-11 23:53:00
6:53 PM,30.9,12.0,46,30.59,10.0,NNE,13.8,19.6,N/A,,Mostly Cloudy,20,2012-02-12 00:53:00
7:53 PM,30.0,12.9,49,30.59,10.0,NNE,12.7,-,N/A,,Overcast,30,2012-02-12 01:53:00
8:53 PM,28.9,10.9,47,30.61,10.0,NNE,15.0,-,N/A,,Mostly Cloudy,30,2012-02-12 02:53:00
9:53 PM,28.0,12.0,51,30.62,10.0,NNE,11.5,-,N/A,,Scattered Clouds,30,2012-02-12 03:53:00
10:53 PM,28.0,12.0,51,30.59,10.0,NNE,15.0,-,N/A,,Scattered Clouds,30,2012-02-12 04:53:00
11:53 PM,28.9,12.0,49,30.62,10.0,NNE,11.5,-,N/A,,Mostly Cloudy,20,2012-02-12 05:53:00